{"data":{"norad_id":60197,"epoch":"2026-09-21T21:22:38.825760Z","epoch_age_seconds":61029,"freshness":"FRESH","line1":"1 60197U 24124Q   26264.89072715 -.00000601  00000+0 -66605-5 0  9991","line2":"2 60197  53.1597 127.0027 0001202  81.2685 278.8453 15.34383639124390","mean_motion":15.34383639,"eccentricity":0.0001202,"inclination_deg":53.1597,"raan_deg":127.0027,"arg_perigee_deg":81.2685,"mean_anomaly_deg":278.8453,"bstar":-6.6605e-6,"rev_number":12439,"period_min":93.84875877186,"perigee_km":461.92959413708,"apogee_km":463.57414382118,"semimajor_km":6840.8888689791,"source":"CELESTRAK","updated_at":"2026-09-22T09:00:49.184542Z"}}